Location: Riedlingen
(48.1569°N, 9.4757°E)
Time: 03:53:21
(UTC+02:00)

ISS - Pass Details

Date: 14 May 2021
Orbit: 417 x 422 km, 51.6° (Epoch: 15 June)

Event Time Altitude Azimuth Distance (km) Brightness Sun altitude
Rises 22:47:48 0° 225° (SW) 2,354 0.0 -15.0°
Reaches altitude 10° 22:49:57 10° 218° (SW) 1,495 -1.1 -15.2°
Maximum altitude 22:53:07 40° 147° (SSE) 632 -3.4 -15.5°
Enters shadow 22:54:58 21° 88° (E) 1,010 -2.1 -15.7°
Exits shadow 22:56:53 - 73° (ENE) 1,726 -0.8 -15.9°
Sets 22:58:29 0° 69° (ENE) 2,374 -0.1 -16.1°
